Terminal Aerodrome Forecast
Issued by NWS Atlanta, GA

Home | Current Version | Previous Version | Text Only | Print | Product List | Glossary On
Versions: 1 2 3 4 5 6 7 8 9 10 11 12 13 14 15 16 17 18 19 20 21 22 23 24 25 26 27 28 29 30 31 32 33 34
000
FTAK31 PAJN 302300
TAFAHN
TAF
PAHN 302321Z 3100/3124 12006KT P6SM SCT060 SCT120
     FM310400 VRB03KT P6SM SCT050 BKN100
     FM311600 30005KT P6SM SCT150
     FM312000 12008KT P6SM SCT060 SCT120
      AMD LTD TO CLD VIS AND WIND=

USA.gov is the U.S. government's official web portal to all federal, state and local government web resources and services.